Regional Weather Roundup
Issued by NWS Cleveland, OH

Home | Current Version | Previous Version | Graphics & Text | Print | Product List | Glossary On
Versions: 1 2 3 4 5 6 7 8 9 10 11 12 13 14 15 16 17 18 19 20 21 22 23 24 25 26 27 28 29 30 31 32 33 34 35 36 37 38 39 40 41 42 43 44 45 46 47 48 49 50
000
ASUS41 KCLE 060912
RWRCLE
OHIO REGIONAL WEATHER ROUNDUP
NATIONAL WEATHER SERVICE WILMINGTON, OH
500 AM EDT FRI MAY 06 2016

NOTE: "FAIR" INDICATES FEW OR NO CLOUDS BELOW 12,000 FEET WITH NO
SIGNIFICANT WEATHER AND/OR OBSTRUCTIONS TO VISIBILITY.

OHZ001>008-015>018-024>027-034-035-043-044-061000-
   NORTHWEST OHIO

CITY           SKY/WX    TMP DP  RH WIND       PRES   REMARKS
DEFIANCE       FAIR      48  40  73 NW3       29.92S
FINDLAY        FAIR      49  36  61 N6        29.90S
TOLEDO EXPRESS FAIR      46  39  76 CALM      29.91S
TOLEDO EXEC    FAIR      46  36  68 NW6       29.92S
LIMA           FAIR      47  41  80 N3        29.91S
$$

OHZ009>014-019>023-028>033-038-089-061000-
   NORTHEAST OHIO

CITY           SKY/WX    TMP DP  RH WIND       PRES   REMARKS
CLE-HOPKINS    FAIR      44  41  89 NW3       29.90R
CLE-LAKEFRONT  CLOUDY    50  43  77 N6        29.87R
CUY CO. ARPT   NOT AVBL
LORAIN-ELYRIA  FAIR      45  39  79 N6        29.89S
ASHTABULA      FAIR      41  41 100 NW5       29.85R
AKRON-CANTON   FAIR      46  41  82 N8        29.85R
WOOSTER        FAIR      43  41  93 N8        29.86S
MANSFIELD      FAIR      42  39  89 NW8       29.88S
YOUNGSTOWN     MOCLDY    45  41  86 N8        29.82F
$$

OHZ042-051>053-060>062-070>072-077>081-061000-
  SOUTHWEST OHIO

CITY           SKY/WX    TMP DP  RH WIND       PRES   REMARKS
CINC-COVINGTON MOCLDY    50  45  83 N9        29.91S
CINC-LUNKEN    FAIR      46  44  93 CALM      29.92S
HAMILTON       MOCLDY    46  44  93 NW5       29.93S
DAYTON         FAIR      46  43  89 NW7       29.92S
WRIGHT-PAT AFB FAIR      44  41  91 SE2       29.91R
DAYTON GENERAL FAIR      49  42  77 N7        29.90S
WILMINGTON     FAIR      46  38  73 N8        29.90R
$$

OHZ036-037-039>041-045>050-054>059-063>069-073>076-082>088-061000-
  CENTRAL AND SOUTHEAST OHIO

CITY           SKY/WX    TMP DP  RH WIND       PRES   REMARKS
COLUMBUS       FAIR      48  39  71 N10       29.86S
OSU AIRPORT    FAIR      47  37  68 NW8       29.88R
BOLTON FIELD   CLOUDY    46  38  74 NW7       29.88S
RICKENBACK AFB MOCLDY    49  39  68 N8        29.86S
NEWARK         MOCLDY    50  40  68 CALM      29.85S
MARION         FAIR      44  37  76 N5        29.89S
LANCASTER      CLOUDY    48  41  76 NW7       29.86R
ZANESVILLE     MOCLDY    49  42  77 NW3       29.84R
NEW PHILLY     FAIR      45  42  89 W3        29.85R
$$




USA.gov is the U.S. government's official web portal to all federal, state and local government web resources and services.